PEGASUS DEB, 27679

Orbit data source: Space-Track

PEGASUS DEB, 27679 is space debris in LEO originally from a launch on Thu, 19 May 1994 UTC launched from the Air Force Western Test Range (AFWTR). Debris objects in space refer to the collection of defunct objects orbiting the Earth. Examples of debris include non-operational satellites, rocket bodies, and fragments generated from explosions, collisions, or faulty payload assembly.

Loading next visibility...
Identifier
27679, 1994-029AEJ
Orbit
LEO
Country
Flag of USUS
Related business
Manufacturer
Unknown
Mission
Spacecraft
Bus & Motor
Unknown
Mass
Unknown
Launch date (UTC)
1994-05-19 (32 years ago)
Launch vehicle
Unknown
Launch site
Air Force Western Test Range (AFWTR)
Object type
Payload
Rocket body
Debris
Shape & HBR
Unknown shape, 0.1 m
Radar Cross Section
Small (<0.1 m²)

Expand to show TLE details & history
Last TLE update: 2 days ago

TLE from 2 days ago
0 PEGASUS DEB
1 27679U 94029AEJ 26066.85351212  .00003191  00000-0  70363-3 0  9998
2 27679  81.9754 115.5030 0296375 180.1454 179.9700 14.33296857252030
Epoch: 2026-03-07T20:29Z
TLE epoch observation values (Epoch: 2026-03-07T20:29:03.447Z)
Latitude
-0.00003°
Longitude
2.66943°
Altitude
995.903 km
Speed
7.244 km/s
True Right ascension
07h 42m 00s
True Declination
0° 00' 00"
Sunlit
Object was in full shadow at epoch
Visualization orbit readout
Latitude
Unknown
Longitude
Unknown
Altitude
Unknown
Speed
Unknown
Apparent Right ascension
Unknown
Apparent Declination
Unknown
Sunlit
N/A
Visualization observer readout
Local Sidereal Time
15:50:56
Azimuth
Unknown
Elevation
Unknown
Doppler factor
Unknown
Orbital elements
Apogee altitude
989.922 km
Perigee altitude
565.752 km
Semi-major axis
7,155.974 km
Eccentricity
0.02964
Inclination
81.9754°
RAAN
115.503°
Arg. of periapsis
180.1454°
True anomaly
179.97171°
Mean anomaly
179.97°
Eccentric anomaly
179.97086°
Mean motion
3.58542 °/min
Orbital period
100.41 mins
BSTAR
0.00070363
Loading maneuver chart data...
Computing Atmospheric mass density...

Documentation

Showing up to 5 results
|